Year,Month,Day,Hour,Minute,Value (Times are PST for temperature in C)
2011,09,12,00,00,17.30
2011,09,12,00,01,17.30
2011,09,12,00,02,17.30
2011,09,12,00,03,17.30
2011,09,12,00,04,17.30
2011,09,12,00,05,17.30
2011,09,12,00,06,17.30
2011,09,12,00,07,17.30
2011,09,12,00,08,17.30
2011,09,12,00,09,17.30
2011,09,12,00,10,17.30
2011,09,12,00,11,17.30
2011,09,12,00,12,17.30
2011,09,12,00,13,17.30
2011,09,12,00,14,17.30
2011,09,12,00,15,17.40
2011,09,12,00,16,17.50
2011,09,12,00,17,17.50
2011,09,12,00,18,17.60
2011,09,12,00,19,17.60
2011,09,12,00,20,17.60
2011,09,12,00,21,17.70
2011,09,12,00,22,17.70
2011,09,12,00,23,17.70
2011,09,12,00,24,17.70
2011,09,12,00,25,17.70
2011,09,12,00,26,17.70
2011,09,12,00,27,17.60
2011,09,12,00,28,17.60
2011,09,12,00,29,17.60
2011,09,12,00,30,17.60
2011,09,12,00,31,17.50
2011,09,12,00,32,17.50
2011,09,12,00,33,17.50
2011,09,12,00,34,17.50
2011,09,12,00,35,17.50
2011,09,12,00,36,17.50
2011,09,12,00,37,17.40
2011,09,12,00,38,17.40
2011,09,12,00,39,17.40
2011,09,12,00,40,17.40
2011,09,12,00,41,17.40
2011,09,12,00,42,17.40
2011,09,12,00,43,17.40
2011,09,12,00,44,17.40
2011,09,12,00,45,17.40
2011,09,12,00,46,17.40
2011,09,12,00,47,17.30
2011,09,12,00,48,17.30
2011,09,12,00,49,17.30
2011,09,12,00,50,17.30
2011,09,12,00,51,17.30
2011,09,12,00,52,17.30
2011,09,12,00,53,17.30
2011,09,12,00,54,17.30
2011,09,12,00,55,17.20
2011,09,12,00,56,17.20
2011,09,12,00,57,17.20
2011,09,12,00,58,17.10
2011,09,12,00,59,17.10
2011,09,12,01,00,17.10
2011,09,12,01,01,17.00
2011,09,12,01,02,17.00
2011,09,12,01,03,17.00
2011,09,12,01,04,17.00
2011,09,12,01,05,17.00
2011,09,12,01,06,17.00
2011,09,12,01,07,16.90
2011,09,12,01,08,16.90
2011,09,12,01,09,16.90
2011,09,12,01,10,16.90
2011,09,12,01,11,16.90
2011,09,12,01,12,16.80
2011,09,12,01,13,16.80
2011,09,12,01,14,16.80
2011,09,12,01,15,16.70
2011,09,12,01,16,16.70
2011,09,12,01,17,16.70
2011,09,12,01,18,16.70
2011,09,12,01,19,16.70
2011,09,12,01,20,16.70
2011,09,12,01,21,16.70
2011,09,12,01,22,16.70
2011,09,12,01,23,16.70
2011,09,12,01,24,16.70
2011,09,12,01,25,16.70
2011,09,12,01,26,16.70
2011,09,12,01,27,16.70
2011,09,12,01,28,16.70
2011,09,12,01,29,16.70
2011,09,12,01,30,16.70
2011,09,12,01,31,16.60
2011,09,12,01,32,16.60
2011,09,12,01,33,16.60
2011,09,12,01,34,16.60
2011,09,12,01,35,16.60
2011,09,12,01,36,16.60
2011,09,12,01,37,16.50
2011,09,12,01,38,16.40
2011,09,12,01,39,16.40
2011,09,12,01,40,16.40
2011,09,12,01,41,16.40
2011,09,12,01,42,16.40
2011,09,12,01,43,16.40
2011,09,12,01,44,16.40
2011,09,12,01,45,16.40
2011,09,12,01,46,16.40
2011,09,12,01,47,16.40
2011,09,12,01,48,16.40
2011,09,12,01,49,16.40
2011,09,12,01,50,16.40
2011,09,12,01,51,16.40
2011,09,12,01,52,16.40
2011,09,12,01,53,16.40
2011,09,12,01,54,16.40
2011,09,12,01,55,16.40
2011,09,12,01,56,16.40
2011,09,12,01,57,16.40
2011,09,12,01,58,16.40
2011,09,12,01,59,16.40
2011,09,12,02,00,16.40
2011,09,12,02,01,16.40
2011,09,12,02,02,16.40
2011,09,12,02,03,16.40
2011,09,12,02,04,16.40
2011,09,12,02,05,16.40
2011,09,12,02,06,16.40
2011,09,12,02,07,16.40
2011,09,12,02,08,16.40
2011,09,12,02,09,16.40
2011,09,12,02,10,16.40
2011,09,12,02,11,16.30
2011,09,12,02,12,16.30
2011,09,12,02,13,16.30
2011,09,12,02,14,16.30
2011,09,12,02,15,16.30
2011,09,12,02,16,16.20
2011,09,12,02,17,16.20
2011,09,12,02,18,16.20
2011,09,12,02,19,16.20
2011,09,12,02,20,16.10
2011,09,12,02,21,16.10
2011,09,12,02,22,16.10
2011,09,12,02,23,16.10
2011,09,12,02,24,16.00
2011,09,12,02,25,15.90
2011,09,12,02,26,15.90
2011,09,12,02,27,15.80
2011,09,12,02,28,15.80
2011,09,12,02,29,15.80
2011,09,12,02,30,15.70
2011,09,12,02,31,15.70
2011,09,12,02,32,15.60
2011,09,12,02,33,15.60
2011,09,12,02,34,15.50
2011,09,12,02,35,15.50
2011,09,12,02,36,15.50
2011,09,12,02,37,15.40
2011,09,12,02,38,15.40
2011,09,12,02,39,15.40
2011,09,12,02,40,15.30
2011,09,12,02,41,15.30
2011,09,12,02,42,15.30
2011,09,12,02,43,15.30
2011,09,12,02,44,15.30
2011,09,12,02,45,15.20
2011,09,12,02,46,15.20
2011,09,12,02,47,15.10
2011,09,12,02,48,15.10
2011,09,12,02,49,15.10
2011,09,12,02,50,15.00
2011,09,12,02,51,15.00
2011,09,12,02,52,15.00
2011,09,12,02,53,14.90
2011,09,12,02,54,14.90
2011,09,12,02,55,14.90
2011,09,12,02,56,14.90
2011,09,12,02,57,14.80
2011,09,12,02,58,14.80
2011,09,12,02,59,14.80
2011,09,12,03,00,14.80
2011,09,12,03,01,14.80
2011,09,12,03,02,14.80
2011,09,12,03,03,14.80
2011,09,12,03,04,14.80
2011,09,12,03,05,14.80
2011,09,12,03,06,14.80
2011,09,12,03,07,14.80
2011,09,12,03,08,14.80
2011,09,12,03,09,14.80
2011,09,12,03,10,14.80
2011,09,12,03,11,14.70
2011,09,12,03,12,14.70
2011,09,12,03,13,14.70
2011,09,12,03,14,14.70
2011,09,12,03,15,14.60
2011,09,12,03,16,14.60
2011,09,12,03,17,14.60
2011,09,12,03,18,14.60
2011,09,12,03,19,14.50
2011,09,12,03,20,14.50
2011,09,12,03,21,14.50
2011,09,12,03,22,14.50
2011,09,12,03,23,14.40
2011,09,12,03,24,14.40
2011,09,12,03,25,14.40
2011,09,12,03,26,14.30
2011,09,12,03,27,14.30
2011,09,12,03,28,14.30
2011,09,12,03,29,14.20
2011,09,12,03,30,14.20
2011,09,12,03,31,14.20
2011,09,12,03,32,14.20
2011,09,12,03,33,14.20
2011,09,12,03,34,14.20
2011,09,12,03,35,14.20
2011,09,12,03,36,14.20
2011,09,12,03,37,14.20
2011,09,12,03,38,14.20
2011,09,12,03,39,14.20
2011,09,12,03,40,14.20
2011,09,12,03,41,14.20
2011,09,12,03,42,14.20
2011,09,12,03,43,14.20
2011,09,12,03,44,14.20
2011,09,12,03,45,14.20
2011,09,12,03,46,14.20
2011,09,12,03,47,14.20
2011,09,12,03,48,14.20
2011,09,12,03,49,14.20
2011,09,12,03,50,14.20
2011,09,12,03,51,14.20
2011,09,12,03,52,14.20
2011,09,12,03,53,14.20
2011,09,12,03,54,14.20
2011,09,12,03,55,14.20
2011,09,12,03,56,14.20
2011,09,12,03,57,14.20
2011,09,12,03,58,14.20
2011,09,12,03,59,14.20
2011,09,12,04,00,14.20
2011,09,12,04,01,14.20
2011,09,12,04,02,14.20
2011,09,12,04,03,14.20
2011,09,12,04,04,14.20
2011,09,12,04,05,14.10
2011,09,12,04,06,14.10
2011,09,12,04,07,14.00
2011,09,12,04,08,14.00
2011,09,12,04,09,14.00
2011,09,12,04,10,13.90
2011,09,12,04,11,13.90
2011,09,12,04,12,13.90
2011,09,12,04,13,13.90
2011,09,12,04,14,13.80
2011,09,12,04,15,13.80
2011,09,12,04,16,13.70
2011,09,12,04,17,13.70
2011,09,12,04,18,13.70
2011,09,12,04,19,13.70
2011,09,12,04,20,13.70
2011,09,12,04,21,13.70
2011,09,12,04,22,13.60
2011,09,12,04,23,13.60
2011,09,12,04,24,13.60
2011,09,12,04,25,13.60
2011,09,12,04,26,13.50
2011,09,12,04,27,13.50
2011,09,12,04,28,13.50
2011,09,12,04,29,13.50
2011,09,12,04,30,13.40
2011,09,12,04,31,13.40
2011,09,12,04,32,13.40
2011,09,12,04,33,13.40
2011,09,12,04,34,13.40
2011,09,12,04,35,13.40
2011,09,12,04,36,13.40
2011,09,12,04,37,13.40
2011,09,12,04,38,13.40
2011,09,12,04,39,13.40
2011,09,12,04,40,13.40
2011,09,12,04,41,13.40
2011,09,12,04,42,13.40
2011,09,12,04,43,13.40
2011,09,12,04,44,13.40
2011,09,12,04,45,13.50
2011,09,12,04,46,13.50
2011,09,12,04,47,13.50
2011,09,12,04,48,13.50
2011,09,12,04,49,13.60
2011,09,12,04,50,13.60
2011,09,12,04,51,13.60
2011,09,12,04,52,13.60
2011,09,12,04,53,13.60
2011,09,12,04,54,13.60
2011,09,12,04,55,13.60
2011,09,12,04,56,13.60
2011,09,12,04,57,13.70
2011,09,12,04,58,13.70
2011,09,12,04,59,13.70
2011,09,12,05,00,13.70
2011,09,12,05,01,13.70
2011,09,12,05,02,13.70
2011,09,12,05,03,13.70
2011,09,12,05,04,13.70
2011,09,12,05,05,13.70
2011,09,12,05,06,13.70
2011,09,12,05,07,13.70
2011,09,12,05,08,13.70
2011,09,12,05,09,13.80
2011,09,12,05,10,13.80
2011,09,12,05,11,13.80
2011,09,12,05,12,13.80
2011,09,12,05,13,13.80
2011,09,12,05,14,13.80
2011,09,12,05,15,13.90
2011,09,12,05,16,13.90
2011,09,12,05,17,13.90
2011,09,12,05,18,13.90
2011,09,12,05,19,14.00
2011,09,12,05,20,14.00
2011,09,12,05,21,14.00
2011,09,12,05,22,14.00
2011,09,12,05,23,14.00
2011,09,12,05,24,14.00
2011,09,12,05,25,14.00
2011,09,12,05,26,14.00
2011,09,12,05,27,14.00
2011,09,12,05,28,14.10
2011,09,12,05,29,14.20
2011,09,12,05,30,14.20
2011,09,12,05,31,14.20
2011,09,12,05,32,14.20
2011,09,12,05,33,14.20
2011,09,12,05,34,14.20
2011,09,12,05,35,14.20
2011,09,12,05,36,14.20
2011,09,12,05,37,14.20
2011,09,12,05,38,14.20
2011,09,12,05,39,14.30
2011,09,12,05,40,14.30
2011,09,12,05,41,14.30
2011,09,12,05,42,14.30
2011,09,12,05,43,14.20
2011,09,12,05,44,14.20
2011,09,12,05,45,14.20
2011,09,12,05,46,14.20
2011,09,12,05,47,14.20
2011,09,12,05,48,14.20
2011,09,12,05,49,14.20
2011,09,12,05,50,14.20
2011,09,12,05,51,14.20
2011,09,12,05,52,14.20
2011,09,12,05,53,14.20
2011,09,12,05,54,14.20
2011,09,12,05,55,14.20
2011,09,12,05,56,14.20
2011,09,12,05,57,14.20
2011,09,12,05,58,14.20
2011,09,12,05,59,14.20
2011,09,12,06,00,14.20
2011,09,12,06,01,14.20
2011,09,12,06,02,14.20
2011,09,12,06,03,14.20
2011,09,12,06,04,14.20
2011,09,12,06,05,14.20
2011,09,12,06,06,14.20
2011,09,12,06,07,14.20
2011,09,12,06,08,14.20
2011,09,12,06,09,14.20
2011,09,12,06,10,14.20
2011,09,12,06,11,14.20
2011,09,12,06,12,14.10
2011,09,12,06,13,14.10
2011,09,12,06,14,14.10
2011,09,12,06,15,14.10
2011,09,12,06,16,14.10
2011,09,12,06,17,14.10
2011,09,12,06,18,14.00
2011,09,12,06,19,14.00
2011,09,12,06,20,14.00
2011,09,12,06,21,14.00
2011,09,12,06,22,14.00
2011,09,12,06,23,14.00
2011,09,12,06,24,13.90
2011,09,12,06,25,13.90
2011,09,12,06,26,13.90
2011,09,12,06,27,13.90
2011,09,12,06,28,13.90
2011,09,12,06,29,13.90
2011,09,12,06,30,13.90
2011,09,12,06,31,13.90
2011,09,12,06,32,13.90
2011,09,12,06,33,13.80
2011,09,12,06,34,13.80
2011,09,12,06,35,13.80
2011,09,12,06,36,13.80
2011,09,12,06,37,13.80
2011,09,12,06,38,13.80
2011,09,12,06,39,13.70
2011,09,12,06,40,13.70
2011,09,12,06,41,13.70
2011,09,12,06,42,13.70
2011,09,12,06,43,13.70
2011,09,12,06,44,13.70
2011,09,12,06,45,13.60
2011,09,12,06,46,13.60
2011,09,12,06,47,13.60
2011,09,12,06,48,13.60
2011,09,12,06,49,13.60
2011,09,12,06,50,13.60
2011,09,12,06,51,13.60
2011,09,12,06,52,13.60
2011,09,12,06,53,13.60
2011,09,12,06,54,13.60
2011,09,12,06,55,13.60
2011,09,12,06,56,13.60
2011,09,12,06,57,13.60
2011,09,12,06,58,13.60
2011,09,12,06,59,13.60
2011,09,12,07,00,13.60
2011,09,12,07,01,13.60
2011,09,12,07,02,13.60
2011,09,12,07,03,13.60
2011,09,12,07,04,13.60
2011,09,12,07,05,13.60
2011,09,12,07,06,13.60
2011,09,12,07,07,13.60
2011,09,12,07,08,13.50
2011,09,12,07,09,13.50
2011,09,12,07,10,13.50
2011,09,12,07,11,13.50
2011,09,12,07,12,13.50
2011,09,12,07,13,13.50
2011,09,12,07,14,13.50
2011,09,12,07,15,13.50
2011,09,12,07,16,13.50
2011,09,12,07,17,13.50
2011,09,12,07,18,13.50
2011,09,12,07,19,13.50
2011,09,12,07,20,13.50
2011,09,12,07,21,13.50
2011,09,12,07,22,13.50
2011,09,12,07,23,13.50
2011,09,12,07,24,13.60
2011,09,12,07,25,13.60
2011,09,12,07,26,13.60
2011,09,12,07,27,13.60
2011,09,12,07,28,13.60
2011,09,12,07,29,13.60
2011,09,12,07,30,13.60
2011,09,12,07,31,13.60
2011,09,12,07,32,13.60
2011,09,12,07,33,13.50
2011,09,12,07,34,13.50
2011,09,12,07,35,13.50
2011,09,12,07,36,13.50
2011,09,12,07,37,13.50
2011,09,12,07,38,13.50
2011,09,12,07,39,13.50
2011,09,12,07,40,13.50
2011,09,12,07,41,13.50
2011,09,12,07,42,13.50
2011,09,12,07,43,13.50
2011,09,12,07,44,13.50
2011,09,12,07,45,13.50
2011,09,12,07,46,13.50
2011,09,12,07,47,13.50
2011,09,12,07,48,13.50
2011,09,12,07,49,13.50
2011,09,12,07,50,13.50
2011,09,12,07,51,13.50
2011,09,12,07,52,13.50
2011,09,12,07,53,13.50
2011,09,12,07,54,13.50
2011,09,12,07,55,13.50
2011,09,12,07,56,13.50
2011,09,12,07,57,13.50
2011,09,12,07,58,13.50
2011,09,12,07,59,13.50
2011,09,12,08,00,13.50
2011,09,12,08,01,13.50
2011,09,12,08,02,13.60
2011,09,12,08,03,13.60
2011,09,12,08,04,13.60
2011,09,12,08,05,13.60
2011,09,12,08,06,13.60
2011,09,12,08,07,13.70
2011,09,12,08,08,13.70
2011,09,12,08,09,13.70
2011,09,12,08,10,13.70
2011,09,12,08,11,13.70
2011,09,12,08,12,13.70
2011,09,12,08,13,13.70
2011,09,12,08,14,13.70
2011,09,12,08,15,13.80
2011,09,12,08,16,13.80
2011,09,12,08,17,13.80
2011,09,12,08,18,13.80
2011,09,12,08,19,13.90
2011,09,12,08,20,13.90
2011,09,12,08,21,13.90
2011,09,12,08,22,14.00
2011,09,12,08,23,14.00
2011,09,12,08,24,14.00
2011,09,12,08,25,14.00
2011,09,12,08,26,14.10
2011,09,12,08,27,14.10
2011,09,12,08,28,14.10
2011,09,12,08,29,14.10
2011,09,12,08,30,14.20
2011,09,12,08,31,14.20
2011,09,12,08,32,14.20
2011,09,12,08,33,14.20
2011,09,12,08,34,14.20
2011,09,12,08,35,14.20
2011,09,12,08,36,14.20
2011,09,12,08,37,14.20
2011,09,12,08,38,14.30
2011,09,12,08,39,14.30
2011,09,12,08,40,14.30
2011,09,12,08,41,14.30
2011,09,12,08,42,14.40
2011,09,12,08,43,14.40
2011,09,12,08,44,14.40
2011,09,12,08,45,14.50
2011,09,12,08,46,14.50
2011,09,12,08,47,14.60
2011,09,12,08,48,14.60
2011,09,12,08,49,14.60
2011,09,12,08,50,14.70
2011,09,12,08,51,14.70
2011,09,12,08,52,14.80
2011,09,12,08,53,14.80
2011,09,12,08,54,14.80
2011,09,12,08,55,14.80
2011,09,12,08,56,14.90
2011,09,12,08,57,14.90
2011,09,12,08,58,14.90
2011,09,12,08,59,15.00
2011,09,12,09,00,15.10
2011,09,12,09,01,15.20
2011,09,12,09,02,15.20
2011,09,12,09,03,15.30
2011,09,12,09,04,15.40
2011,09,12,09,05,15.50
2011,09,12,09,06,15.60
2011,09,12,09,07,15.70
2011,09,12,09,08,15.80
2011,09,12,09,09,15.80
2011,09,12,09,10,15.90
2011,09,12,09,11,16.10
2011,09,12,09,12,16.10
2011,09,12,09,13,16.20
2011,09,12,09,14,16.30
2011,09,12,09,15,16.40
2011,09,12,09,16,16.40
2011,09,12,09,17,16.40
2011,09,12,09,18,16.50
2011,09,12,09,19,16.60
2011,09,12,09,20,16.60
2011,09,12,09,21,16.60
2011,09,12,09,22,16.70
2011,09,12,09,23,16.70
2011,09,12,09,24,16.70
2011,09,12,09,25,16.70
2011,09,12,09,26,16.70
2011,09,12,09,27,16.70
2011,09,12,09,28,16.70
2011,09,12,09,29,16.70
2011,09,12,09,30,16.70
2011,09,12,09,31,16.80
2011,09,12,09,32,16.80
2011,09,12,09,33,16.80
2011,09,12,09,34,16.80
2011,09,12,09,35,16.90
2011,09,12,09,36,16.90
2011,09,12,09,37,16.90
2011,09,12,09,38,16.90
2011,09,12,09,39,16.90
2011,09,12,09,40,16.90
2011,09,12,09,41,16.90
2011,09,12,09,42,16.90
2011,09,12,09,43,16.90
2011,09,12,09,44,16.90
2011,09,12,09,45,16.90
2011,09,12,09,46,17.00
2011,09,12,09,47,17.00
2011,09,12,09,48,17.10
2011,09,12,09,49,17.20
2011,09,12,09,50,17.30
2011,09,12,09,51,17.40
2011,09,12,09,52,17.50
2011,09,12,09,53,17.60
2011,09,12,09,54,17.80
2011,09,12,09,55,17.90
2011,09,12,09,56,18.00
2011,09,12,09,57,18.20
2011,09,12,09,58,18.20
2011,09,12,09,59,18.20
2011,09,12,10,00,18.30
2011,09,12,10,01,18.30
2011,09,12,10,02,18.40
2011,09,12,10,03,18.50
2011,09,12,10,04,18.50
2011,09,12,10,05,18.60
2011,09,12,10,06,18.70
2011,09,12,10,07,18.80
2011,09,12,10,08,18.90
2011,09,12,10,09,18.90
2011,09,12,10,10,19.00
2011,09,12,10,11,19.10
2011,09,12,10,12,19.10
2011,09,12,10,13,19.20
2011,09,12,10,14,19.30
2011,09,12,10,15,19.40
2011,09,12,10,16,19.50
2011,09,12,10,17,19.50
2011,09,12,10,18,19.60
2011,09,12,10,19,19.70
2011,09,12,10,20,19.80
2011,09,12,10,21,19.80
2011,09,12,10,22,19.90
2011,09,12,10,23,19.90
2011,09,12,10,24,20.00
2011,09,12,10,25,20.10
2011,09,12,10,26,20.10
2011,09,12,10,27,20.10
2011,09,12,10,28,20.10
2011,09,12,10,29,20.20
2011,09,12,10,30,20.20
2011,09,12,10,31,20.10
2011,09,12,10,32,20.10
2011,09,12,10,33,20.00
2011,09,12,10,34,19.90
2011,09,12,10,35,19.90
2011,09,12,10,36,20.00
2011,09,12,10,37,20.10
2011,09,12,10,38,20.10
2011,09,12,10,39,20.10
2011,09,12,10,40,20.10
2011,09,12,10,41,20.10
2011,09,12,10,42,20.10
2011,09,12,10,43,20.00
2011,09,12,10,44,19.90
2011,09,12,10,45,19.90
2011,09,12,10,46,19.90
2011,09,12,10,47,19.90
2011,09,12,10,48,19.80
2011,09,12,10,49,19.80
2011,09,12,10,50,19.70
2011,09,12,10,51,19.70
2011,09,12,10,52,19.80
2011,09,12,10,53,19.80
2011,09,12,10,54,19.80
2011,09,12,10,55,19.90
2011,09,12,10,56,20.00
2011,09,12,10,57,20.10
2011,09,12,10,58,20.10
2011,09,12,10,59,20.20
2011,09,12,11,00,20.20
2011,09,12,11,01,20.30
2011,09,12,11,02,20.30
2011,09,12,11,03,20.40
2011,09,12,11,04,20.40
2011,09,12,11,05,20.50
2011,09,12,11,06,20.50
2011,09,12,11,07,20.60
2011,09,12,11,08,20.60
2011,09,12,11,09,20.60
2011,09,12,11,10,20.70
2011,09,12,11,11,20.70
2011,09,12,11,12,20.80
2011,09,12,11,13,20.80
2011,09,12,11,14,20.80
2011,09,12,11,15,20.90
2011,09,12,11,16,20.90
2011,09,12,11,17,20.90
2011,09,12,11,18,21.00
2011,09,12,11,19,21.00
2011,09,12,11,20,21.10
2011,09,12,11,21,21.10
2011,09,12,11,22,21.10
2011,09,12,11,23,21.20
2011,09,12,11,24,21.20
2011,09,12,11,25,21.30
2011,09,12,11,26,21.30
2011,09,12,11,27,21.30
2011,09,12,11,28,21.40
2011,09,12,11,29,21.40
2011,09,12,11,30,21.40
2011,09,12,11,31,21.40
2011,09,12,11,32,21.40
2011,09,12,11,33,21.50
2011,09,12,11,34,21.50
2011,09,12,11,35,21.50
2011,09,12,11,36,21.50
2011,09,12,11,37,21.40
2011,09,12,11,38,21.40
2011,09,12,11,39,21.40
2011,09,12,11,40,21.50
2011,09,12,11,41,21.40
2011,09,12,11,42,21.40
2011,09,12,11,43,21.30
2011,09,12,11,44,21.30
2011,09,12,11,45,21.30
2011,09,12,11,46,21.30
2011,09,12,11,47,21.30
2011,09,12,11,48,21.30
2011,09,12,11,49,21.30
2011,09,12,11,50,21.30
2011,09,12,11,51,21.30
2011,09,12,11,52,21.30
2011,09,12,11,53,21.30
2011,09,12,11,54,21.30
2011,09,12,11,55,21.40
2011,09,12,11,56,21.40
2011,09,12,11,57,21.40
2011,09,12,11,58,21.30
2011,09,12,11,59,21.30
2011,09,12,12,00,21.30
2011,09,12,12,01,21.40
2011,09,12,12,02,21.40
2011,09,12,12,03,21.40
2011,09,12,12,04,21.50
2011,09,12,12,05,21.60
2011,09,12,12,06,21.60
2011,09,12,12,07,21.60
2011,09,12,12,08,21.50
2011,09,12,12,09,21.60
2011,09,12,12,10,21.60
2011,09,12,12,11,21.60
2011,09,12,12,12,21.60
2011,09,12,12,13,21.70
2011,09,12,12,14,21.70
2011,09,12,12,15,21.70
2011,09,12,12,16,21.70
2011,09,12,12,17,21.70
2011,09,12,12,18,21.80
2011,09,12,12,19,21.80
2011,09,12,12,20,21.80
2011,09,12,12,21,21.80
2011,09,12,12,22,21.80
2011,09,12,12,23,21.80
2011,09,12,12,24,21.90
2011,09,12,12,25,21.90
2011,09,12,12,26,21.90
2011,09,12,12,27,22.00
2011,09,12,12,28,22.10
2011,09,12,12,29,22.10
2011,09,12,12,30,22.20
2011,09,12,12,31,22.20
2011,09,12,12,32,22.30
2011,09,12,12,33,22.40
2011,09,12,12,34,22.50
2011,09,12,12,35,22.50
2011,09,12,12,36,22.60
2011,09,12,12,37,22.70
2011,09,12,12,38,22.80
2011,09,12,12,39,22.80
2011,09,12,12,40,22.80
2011,09,12,12,41,22.80
2011,09,12,12,42,22.80
2011,09,12,12,43,22.80
2011,09,12,12,44,22.80
2011,09,12,12,45,22.70
2011,09,12,12,46,22.70
2011,09,12,12,47,22.70
2011,09,12,12,48,22.70
2011,09,12,12,49,22.70
2011,09,12,12,50,22.70
2011,09,12,12,51,22.60
2011,09,12,12,52,22.60
2011,09,12,12,53,22.50
2011,09,12,12,54,22.50
2011,09,12,12,55,22.40
2011,09,12,12,56,22.40
2011,09,12,12,57,22.30
2011,09,12,12,58,22.30
2011,09,12,12,59,22.30
2011,09,12,13,00,22.30
2011,09,12,13,01,22.30
2011,09,12,13,02,22.30
2011,09,12,13,03,22.40
2011,09,12,13,04,22.40
2011,09,12,13,05,22.40
2011,09,12,13,06,22.50
2011,09,12,13,07,22.60
2011,09,12,13,08,22.60
2011,09,12,13,09,22.60
2011,09,12,13,10,22.60
2011,09,12,13,11,22.60
2011,09,12,13,12,22.70
2011,09,12,13,13,22.70
2011,09,12,13,14,22.70
2011,09,12,13,15,22.70
2011,09,12,13,16,22.70
2011,09,12,13,17,22.70
2011,09,12,13,18,22.70
2011,09,12,13,19,22.70
2011,09,12,13,20,22.60
2011,09,12,13,21,22.60
2011,09,12,13,22,22.60
2011,09,12,13,23,22.70
2011,09,12,13,24,22.80
2011,09,12,13,25,22.90
2011,09,12,13,26,23.00
2011,09,12,13,27,23.10
2011,09,12,13,28,23.20
2011,09,12,13,29,23.30
2011,09,12,13,30,23.30
2011,09,12,13,31,23.30
2011,09,12,13,32,23.30
2011,09,12,13,33,23.30
2011,09,12,13,34,23.30
2011,09,12,13,35,23.40
2011,09,12,13,36,23.50
2011,09,12,13,37,23.60
2011,09,12,13,38,23.70
2011,09,12,13,39,23.70
2011,09,12,13,40,23.70
2011,09,12,13,41,23.80
2011,09,12,13,42,23.90
2011,09,12,13,43,23.90
2011,09,12,13,44,23.90
2011,09,12,13,45,24.00
2011,09,12,13,46,24.10
2011,09,12,13,47,24.10
2011,09,12,13,48,24.10
2011,09,12,13,49,24.20
2011,09,12,13,50,24.20
2011,09,12,13,51,24.20
2011,09,12,13,52,24.20
2011,09,12,13,53,24.30
2011,09,12,13,54,24.30
2011,09,12,13,55,24.30
2011,09,12,13,56,24.30
2011,09,12,13,57,24.30
2011,09,12,13,58,24.20
2011,09,12,13,59,24.20
2011,09,12,14,00,24.20
2011,09,12,14,01,24.30
2011,09,12,14,02,24.30
2011,09,12,14,03,24.40
2011,09,12,14,04,24.40
2011,09,12,14,05,24.30
2011,09,12,14,06,24.40
2011,09,12,14,07,24.40
2011,09,12,14,08,24.40
2011,09,12,14,09,24.40
2011,09,12,14,10,24.30
2011,09,12,14,11,24.30
2011,09,12,14,12,24.30
2011,09,12,14,13,24.20
2011,09,12,14,14,24.20
2011,09,12,14,15,24.30
2011,09,12,14,16,24.30
2011,09,12,14,17,24.40
2011,09,12,14,18,24.30
2011,09,12,14,19,24.30
2011,09,12,14,20,24.30
2011,09,12,14,21,24.20
2011,09,12,14,22,24.20
2011,09,12,14,23,24.20
2011,09,12,14,24,24.30
2011,09,12,14,25,24.30
2011,09,12,14,26,24.30
2011,09,12,14,27,24.20
2011,09,12,14,28,24.10
2011,09,12,14,29,24.00
2011,09,12,14,30,23.90
2011,09,12,14,31,23.80
2011,09,12,14,32,23.90
2011,09,12,14,33,23.90
2011,09,12,14,34,23.90
2011,09,12,14,35,23.90
2011,09,12,14,36,24.00
2011,09,12,14,37,23.90
2011,09,12,14,38,24.00
2011,09,12,14,39,24.10
2011,09,12,14,40,24.10
2011,09,12,14,41,24.10
2011,09,12,14,42,24.10
2011,09,12,14,43,24.10
2011,09,12,14,44,24.10
2011,09,12,14,45,24.20
2011,09,12,14,46,24.20
2011,09,12,14,47,24.20
2011,09,12,14,48,24.10
2011,09,12,14,49,24.10
2011,09,12,14,50,24.10
2011,09,12,14,51,24.20
2011,09,12,14,52,24.20
2011,09,12,14,53,24.10
2011,09,12,14,54,24.10
2011,09,12,14,55,24.10
2011,09,12,14,56,24.10
2011,09,12,14,57,24.00
2011,09,12,14,58,23.90
2011,09,12,14,59,23.90
2011,09,12,15,00,23.80
2011,09,12,15,01,23.80
2011,09,12,15,02,23.90
2011,09,12,15,03,23.90
2011,09,12,15,04,23.90
2011,09,12,15,05,24.00
2011,09,12,15,06,24.10
2011,09,12,15,07,24.00
2011,09,12,15,08,23.90
2011,09,12,15,09,24.00
2011,09,12,15,10,24.10
2011,09,12,15,11,24.10
2011,09,12,15,12,24.10
2011,09,12,15,13,24.10
2011,09,12,15,14,24.10
2011,09,12,15,15,24.10
2011,09,12,15,16,24.10
2011,09,12,15,17,24.10
2011,09,12,15,18,24.00
2011,09,12,15,19,23.90
2011,09,12,15,20,23.90
2011,09,12,15,21,23.80
2011,09,12,15,22,23.80
2011,09,12,15,23,23.80
2011,09,12,15,24,23.70
2011,09,12,15,25,23.70
2011,09,12,15,26,23.70
2011,09,12,15,27,23.60
2011,09,12,15,28,23.60
2011,09,12,15,29,23.60
2011,09,12,15,30,23.50
2011,09,12,15,31,23.40
2011,09,12,15,32,23.30
2011,09,12,15,33,23.30
2011,09,12,15,34,23.30
2011,09,12,15,35,23.30
2011,09,12,15,36,23.30
2011,09,12,15,37,23.30
2011,09,12,15,38,23.30
2011,09,12,15,39,23.30
2011,09,12,15,40,23.30
2011,09,12,15,41,23.30
2011,09,12,15,42,23.30
2011,09,12,15,43,23.30
2011,09,12,15,44,23.30
2011,09,12,15,45,23.40
2011,09,12,15,46,23.40
2011,09,12,15,47,23.50
2011,09,12,15,48,23.60
2011,09,12,15,49,23.60
2011,09,12,15,50,23.60
2011,09,12,15,51,23.60
2011,09,12,15,52,23.50
2011,09,12,15,53,23.40
2011,09,12,15,54,23.50
2011,09,12,15,55,23.50
2011,09,12,15,56,23.40
2011,09,12,15,57,23.40
2011,09,12,15,58,23.40
2011,09,12,15,59,23.30
2011,09,12,16,00,23.40
2011,09,12,16,01,23.40
2011,09,12,16,02,23.40
2011,09,12,16,03,23.40
2011,09,12,16,04,23.30
2011,09,12,16,05,23.30
2011,09,12,16,06,23.30
2011,09,12,16,07,23.30
2011,09,12,16,08,23.20
2011,09,12,16,09,23.10
2011,09,12,16,10,22.90
2011,09,12,16,11,22.80
2011,09,12,16,12,22.70
2011,09,12,16,13,22.60
2011,09,12,16,14,22.60
2011,09,12,16,15,22.50
2011,09,12,16,16,22.40
2011,09,12,16,17,22.40
2011,09,12,16,18,22.30
2011,09,12,16,19,22.30
2011,09,12,16,20,22.30
2011,09,12,16,21,22.20
2011,09,12,16,22,22.20
2011,09,12,16,23,22.20
2011,09,12,16,24,22.20
2011,09,12,16,25,22.20
2011,09,12,16,26,22.20
2011,09,12,16,27,22.10
2011,09,12,16,28,22.10
2011,09,12,16,29,22.00
2011,09,12,16,30,22.00
2011,09,12,16,31,21.90
2011,09,12,16,32,21.90
2011,09,12,16,33,21.90
2011,09,12,16,34,21.80
2011,09,12,16,35,21.80
2011,09,12,16,36,21.70
2011,09,12,16,37,21.70
2011,09,12,16,38,21.60
2011,09,12,16,39,21.60
2011,09,12,16,40,21.60
2011,09,12,16,41,21.60
2011,09,12,16,42,21.60
2011,09,12,16,43,21.70
2011,09,12,16,44,21.60
2011,09,12,16,45,21.60
2011,09,12,16,46,21.60
2011,09,12,16,47,21.60
2011,09,12,16,48,21.60
2011,09,12,16,49,21.60
2011,09,12,16,50,21.60
2011,09,12,16,51,21.60
2011,09,12,16,52,21.60
2011,09,12,16,53,21.50
2011,09,12,16,54,21.40
2011,09,12,16,55,21.40
2011,09,12,16,56,21.40
2011,09,12,16,57,21.40
2011,09,12,16,58,21.40
2011,09,12,16,59,21.40
2011,09,12,17,00,21.30
2011,09,12,17,01,21.30
2011,09,12,17,02,21.30
2011,09,12,17,03,21.30
2011,09,12,17,04,21.20
2011,09,12,17,05,21.10
2011,09,12,17,06,21.10
2011,09,12,17,07,21.00
2011,09,12,17,08,21.00
2011,09,12,17,09,20.90
2011,09,12,17,10,20.90
2011,09,12,17,11,20.80
2011,09,12,17,12,20.80
2011,09,12,17,13,20.70
2011,09,12,17,14,20.70
2011,09,12,17,15,20.60
2011,09,12,17,16,20.60
2011,09,12,17,17,20.60
2011,09,12,17,18,20.50
2011,09,12,17,19,20.50